Home   Weather   Rygge   Past weeks

Flag for Norway Past Weather in Rygge, Norway — Yesterday and Last 2 Weeks

Now
56 °F

Clear.


Feels Like: 55 °F
Forecast: 53 / 60 °F
Wind: 5 mph from Southeast

Location: Rygge

Current Time: Sep 26, 2016 at 4:06:44 AM

Latest Report: Sep 26, 2016 at 3:00 AM


Visibility: 19 mi

Pressure: 30.08 "Hg

Humidity: 89%

Dew Point: 52 °F

Location of RyggeLocation

Past Weather in Rygge — Graph

°F

Rygge Temperature Yesterday

Maximum temperature yesterday: 64 °F (at 4:00 PM)
Minimum temperature yesterday: 57 °F (at 11:00 PM)
Average temperature yesterday: 61 °F

High & Low Weather Summary for the Past Weeks

 TemperatureHumidityPressure
High73 °F (Sep 14, 2:00 PM)100% (Sep 20, 7:00 AM)30.27 "Hg (Sep 20, 7:00 AM)
Low40 °F (Sep 24, 7:00 AM)44% (Sep 11, 6:00 PM)29.72 "Hg (Sep 11, 8:00 AM)
Average58 °F85%30.12 "Hg
* Reported Sep 11 2:00 AM — Sep 26 2:00 AM, Rygge, Weather by CustomWeather, © 2016

Note: Actual official high and low records may vary slightly from our data, if they occured in-between our weather recording intervals... More about our weather records

Advertising

Rygge Weather History for the Previous 24 Hours

Scroll right to see more
 ConditionsComfort  
Time TempWeatherWind HumidityBarometerVisibility
2:00 AM
Mon, Sep 26
56 °FPassing clouds.5 mph84%30.09 "Hg25 mi
1:00 AM57 °FPassing clouds.6 mph82%30.09 "Hg25 mi
12:00 AM56 °FPassing clouds.5 mph86%30.09 "Hg22 mi
11:00 PM
Sun, Sep 25
57 °FPassing clouds.5 mph86%30.10 "Hg22 mi
10:00 PM59 °FClear.5 mph83%30.10 "Hg22 mi
9:00 PM61 °FOvercast.6 mph80%30.10 "Hg18 mi
8:00 PM61 °FOvercast.6 mph84%30.09 "Hg13 mi
7:00 PM61 °FPassing clouds.5 mph83%30.09 "Hg15 mi
6:00 PM62 °FOvercast.5 mph85%30.09 "Hg12 mi
5:00 PM64 °FOvercast.7 mph82%30.09 "Hg14 mi
4:00 PM64 °FOvercast.6 mph78%30.10 "Hg14 mi
3:00 PM63 °FOvercast.7 mph80%30.11 "Hg17 mi
2:00 PM63 °FOvercast.7 mph83%30.11 "Hg13 mi
1:00 PM62 °FOvercast.7 mph81%30.11 "Hg16 mi
12:00 PM63 °FOvercast.6 mph83%30.10 "Hg12 mi
11:00 AM62 °FOvercast.3 mph85%30.10 "Hg13 mi
10:00 AM61 °FOvercast.6 mph84%30.10 "Hg10 mi
9:00 AM61 °FOvercast.6 mph87%30.09 "Hg9 mi
8:00 AM60 °FLow clouds.5 mph91%30.09 "Hg9 mi
7:00 AM60 °FLow clouds.5 mph91%30.07 "Hg9 mi
6:00 AM60 °FLow clouds.5 mph91%30.07 "Hg11 mi
5:00 AM60 °FOvercast.6 mph90%30.08 "Hg12 mi
4:00 AM61 °FOvercast.6 mph89%30.08 "Hg12 mi
Weather by CustomWeather, © 2016

See weather overviewHow to use our weather pages